Location: Newark
(48.4472°N, 1.4892°E)
Time: 21:10:28
(UTC+00:00)

Transit 4A - Pass Details

Date: 25 November 2019
Orbit: 870 x 975 km, 66.8° (Epoch: 13 December)

Event Time Altitude Azimuth Distance (km) Brightness Sun altitude
Exits shadow 06:15:11 11° 305° (NW) 2,450 9.5 -9.9°
Maximum altitude 06:19:45 28° 251° (WSW) 1,590 8.7 -9.2°
Drops below altitude 10° 06:24:34 10° 194° (SSW) 2,511 10.3 -8.4°
Sets 06:27:21 0° 183° (S) 3,443 11.1 -8.0°
